Weather History for Fryeburg, ME

Change the Weather History Date:

Friday, January 31, 2014

  Actual Average Record
Temperature  
Mean Temperature 28 °F -  
Max Temperature 39 °F 29 °F 57 °F (2013)
Min Temperature 17 °F 5 °F -18 °F (1999)
Degree Days  
Heating Degree Days 37    
Moisture  
Dew Point 10 °F    
Average Humidity 51    
Maximum Humidity 72    
Minimum Humidity 33    
Precipitation  
Precipitation 0.00 in - - ()
Sea Level Pressure  
Sea Level Pressure 30.03 in    
Wind  
Wind Speed 4 mph (SW)    
Max Wind Speed 7 mph    
Max Gust Speed -    
Visibility 10 miles    
Events      
Averages and records for this station are not official NWS values.
T = Trace of Precipitation, MM = Missing Value Source: NWS Daily Summary

Daily Weather History Graph

Daily Weather History Graph

Search for Another Location

Airport:

Trip Planner

Search our weather history database for the weather conditions in past years. The results will help you decide how hot, cold, wet, or windy it might be!

Date:

Astronomy

Jan. 31, 2014 Rise Set
Actual Time 7:02 AM EST 4:52 PM EST
Civil Twilight 6:31 AM EST 5:23 PM EST
Nautical Twilight 5:56 AM EST 5:58 PM EST
Astronomical Twilight 5:23 AM EST 6:32 PM EST
Moon 7:06 AM EST (1/31) 6:17 PM EST (1/31)
Length of Visible Light 10h 52m
Length of Day
9h 50m
New Moon, 1% of the Moon is Illuminated
Jan 31
New Moon
Feb 6
First Quarter
Feb 14
Full
Feb 22
Last Quarter
Mar 1
New

Hourly Weather History & Observations

Time (EST) Temp. Windchill Dew Point Humidity Pressure Visibility Wind Dir Wind Speed Gust Speed Precip Events Conditions
12:54 AM 17.1 °F - 3.0 °F 54% 30.09 in 10.0 mi Calm Calm - N/A   Clear
1:54 AM 18.0 °F 11.1 °F 3.0 °F 52% 30.07 in 10.0 mi WSW 4.6 mph - N/A   Clear
2:54 AM 18.0 °F 12.7 °F 3.9 °F 54% 30.05 in 10.0 mi SE 3.5 mph - N/A   Clear
3:54 AM 17.1 °F - 6.1 °F 62% 30.03 in 10.0 mi Calm Calm - N/A   Scattered Clouds
4:54 AM 19.9 °F 11.1 °F 6.1 °F 55% 30.02 in 10.0 mi South 6.9 mph - N/A   Partly Cloudy
5:54 AM 19.9 °F - 7.0 °F 57% 30.00 in 10.0 mi Calm Calm - N/A   Mostly Cloudy
6:54 AM 19.9 °F 11.1 °F 9.0 °F 62% 30.00 in 10.0 mi Variable 6.9 mph - N/A   Mostly Cloudy
7:54 AM 19.9 °F 11.1 °F 10.0 °F 65% 29.99 in 10.0 mi South 6.9 mph - N/A   Clear
8:54 AM 23.0 °F 17.0 °F 10.9 °F 60% 29.99 in 10.0 mi ESE 4.6 mph - N/A   Clear
9:54 AM 28.0 °F 24.2 °F 8.1 °F 43% 29.99 in 10.0 mi Variable 3.5 mph - N/A   Clear
10:54 AM 30.9 °F 24.3 °F 6.1 °F 35% 29.99 in 10.0 mi Variable 6.9 mph - N/A   Clear
11:54 AM 36.0 °F 31.1 °F 9.0 °F 33% 29.96 in 10.0 mi Variable 5.8 mph - N/A   Clear
12:54 PM 37.9 °F 32.7 °F 10.9 °F 33% 29.94 in 10.0 mi Variable 6.9 mph - N/A   Clear
1:54 PM 39.0 °F 34.8 °F 12.0 °F 33% 29.95 in 10.0 mi WSW 5.8 mph - N/A   Clear
2:54 PM 39.0 °F 34.8 °F 12.9 °F 34% 29.98 in 10.0 mi Variable 5.8 mph - N/A   Clear
3:54 PM 37.0 °F 33.3 °F 12.9 °F 37% 30.00 in 10.0 mi NW 4.6 mph - N/A   Clear
4:54 PM 35.1 °F 31.0 °F 12.9 °F 40% 30.01 in 10.0 mi West 4.6 mph - N/A   Clear
5:54 PM 26.1 °F 21.9 °F 14.0 °F 60% 30.04 in 10.0 mi SW 3.5 mph - N/A   Clear
6:54 PM 26.1 °F 21.9 °F 14.0 °F 60% 30.08 in 10.0 mi WSW 3.5 mph - N/A   Clear
7:54 PM 33.1 °F 27.7 °F 15.1 °F 48% 30.09 in 10.0 mi WNW 5.8 mph - N/A   Clear
8:54 PM 30.9 °F 26.2 °F 15.1 °F 52% 30.12 in 10.0 mi West 4.6 mph - N/A   Clear
9:54 PM 27.0 °F 23.0 °F 15.1 °F 61% 30.14 in 10.0 mi WSW 3.5 mph - N/A   Clear
10:54 PM 21.9 °F 14.5 °F 14.0 °F 72% 30.14 in 10.0 mi SW 5.8 mph - N/A   Clear
11:54 PM 26.1 °F 18.4 °F 15.1 °F 63% 30.14 in 10.0 mi WSW 6.9 mph - N/A   Clear